Powrót do katalogu

SL-14 DEB

AktywnyPO
NORAD 45310·DEBRIS·🇷🇺 Russia

Wystrzelony Aug 15, 1991 z Plesetsk Cosmodrome

Loading…

Następne Przeloty (najbliższe 24 godziny)

TLE

ŚwieżeSource: Space-Track

Epoka: Sep 14, 2026, 02:20 UTC

1 45310U 91056AY  26257.09723557 -.00000067  00000-0 -26072-3 0  9999
2 45310  82.5978 143.7711 0100250 222.5317 136.7999 12.97902541310309

Śledź SL-14 DEB w czasie rzeczywistym z AllMySat

Download on the App Store